TimeIST,TemperatureF,Dew PointF,Humidity,Sea Level PressureIn,VisibilityMPH,Wind Direction,Wind SpeedMPH,Gust SpeedMPH,PrecipitationIn,Events,Conditions,WindDirDegrees,DateUTC
2:00 AM,69.8,50.0,49,30.04,2.5,Calm,Calm,-,N/A,,Haze,0,2013-03-06 20:30:00
2:30 AM,68,51,43,29.99,2,Calm,Calm,,,,Haze,,2013-03-06 21:00:00
4:00 AM,66.2,48.2,52,30.01,2.5,Calm,Calm,-,N/A,,Haze,0,2013-03-06 22:30:00
5:00 AM,64.4,51.8,64,30.01,2.5,Calm,Calm,-,N/A,,Haze,0,2013-03-06 23:30:00
6:00 AM,62.6,50.0,63,30.04,2.5,Calm,Calm,-,N/A,,Haze,0,2013-03-07 00:30:00
7:00 AM,60.8,48.2,63,30.04,2.5,Calm,Calm,-,N/A,,Haze,0,2013-03-07 01:30:00
8:00 AM,66.2,51.8,60,30.06,2.5,Calm,Calm,-,N/A,,Haze,0,2013-03-07 02:30:00
8:30 AM,70,62,68,30.04,1,Calm,Calm,,,,Haze,,2013-03-07 03:00:00
9:00 AM,73.4,50.0,44,30.09,2.5,Calm,Calm,-,N/A,,Haze,0,2013-03-07 03:30:00
10:00 AM,78.8,42.8,28,30.12,2.5,SSE,3.5,-,N/A,,Haze,160,2013-03-07 04:30:00
11:00 AM,82.4,35.6,19,30.09,2.5,West,5.8,-,N/A,,Haze,270,2013-03-07 05:30:00
11:30 AM,84,43,14,30.01,1,West,4.6,,,,Haze,270,2013-03-07 06:00:00
2:00 PM,87.8,32.0,14,30.04,3.1,Variable,8.1,-,N/A,,Haze,0,2013-03-07 08:30:00
2:30 PM,89,38,9,29.94,2,SE,6.9,,,,Haze,140,2013-03-07 09:00:00
3:00 PM,87.8,30.2,13,30.01,3.1,Variable,8.1,-,N/A,,Haze,0,2013-03-07 09:30:00
5:00 PM,87.8,26.6,11,30.01,3.1,Variable,3.5,-,N/A,,Haze,0,2013-03-07 11:30:00
5:30 PM,88,27,5,29.91,2,NNW,3.5,,,,Haze,340,2013-03-07 12:00:00
5:30 PM,87.8,28.4,12,29.98,3.1,NNW,3.5,-,N/A,,Haze,340,2013-03-07 12:00:00
6:00 PM,86.0,26.6,12,30.01,3.1,Variable,3.5,-,N/A,,Haze,0,2013-03-07 12:30:00
7:00 PM,82.4,30.2,15,30.01,2.5,Variable,3.5,-,N/A,,Haze,0,2013-03-07 13:30:00
7:30 PM,80.6,32.0,17,30.04,2.5,Variable,2.3,-,N/A,,Haze,0,2013-03-07 14:00:00
8:00 PM,77.0,37.4,24,30.04,2.5,Calm,Calm,-,N/A,,Haze,0,2013-03-07 14:30:00
8:30 PM,76,38,15,29.98,1,Calm,Calm,,,,Haze,,2013-03-07 15:00:00
10:00 PM,71.6,39.2,31,30.06,1.6,ENE,4.6,-,N/A,,Haze,70,2013-03-07 16:30:00
11:00 PM,71.6,37.4,29,30.06,1.6,Calm,Calm,-,N/A,,Haze,0,2013-03-07 17:30:00
11:30 PM,70,40,23,30.01,1,NE,2.3,,,,Haze,50,2013-03-07 18:00:00